User: anonymous   Login
Location: Lawrence
(38.9720°N, 95.2350°W)
Time: 04:14:58
(UTC-06:00)
Language:

JAS-1B - Orbit

View from above orbital plane
View from above orbital plane
View from above satellite
View from above satellite

Ground track
Ground track

The orbit data is extracted from the following two-line orbital elements,

1 20480U 90013C   16337.90419409 -.00000022  00000-0  13592-4 0  9992
2 20480  99.0241 142.0950 0540919 115.7267   8.4211 12.83413176256543
Epoch (UTC): 02 December 2016 21:42:02
Eccentricity: 0.0540919
inclination: 99.0241°
perigee height: 911 km
apogee height: 1744 km
right ascension of ascending node: 142.0950°
argument of perigee: 115.7267°
revolutions per day: 12.83413176
mean anomaly at epoch: 8.4211°
orbit number at epoch: 25654

The dashed part of the orbit path shows where the satellite is in the earth's shadow,  

DLR